sat.trackr.live / text

‹ back to catalog

STARLINK-32196

NORAD 60430 · 2024-144F

PAYLOAD ACTIVE UNKNOWN

§ Identity

Operator
Country
US
Launch date
2024-08-12
Launch site
AFETR
Launch vehicle
Mass (kg)
RCS (m²)

Purposes: comms

External: N2YO · Heavens-Above · Gunter

§ Orbital elements

Epoch: 2026-09-21T20:21:04.902624Z

Period
93.85 min
Inclination
53.1600°
Eccentricity
0.0000983
Mean motion
15.34394683 rev/d
Perigee alt
462.0 km
Apogee alt
463.4 km
Semi-major
6,840.9 km
B*
1.6394e-5
RAAN
21.6203°
Arg perigee
76.5981°
Mean anomaly
283.5131°
Rev number
11,940

§ Raw data

STARLINK-321961 60430U 24144F   26264.84797341  .00000178  00000+0  16394-4 0  99932 60430  53.1600  21.6203 0000983  76.5981 283.5131 15.34394683119404

JSON: /api/v1/satellites/60430 · /tle

For live sub-satellite position, see the globe view (requires WebGL).

§ Visibility from observer

Set your observer location to see the next 7 days of passes ≥ 10°. The values pass through the URL so the page stays shareable.

No JS? Fill the form by hand. The geolocation button needs JavaScript.